AirNav   Everest Fuels
 
 330 users online  

M93 Houston County Airport
Mc Kinnon, Tennessee, USA

GOING TO MC KINNON?


FAA INFORMATION EFFECTIVE 21 MAY 2020

Location

FAA Identifier: M93
Lat/Long: 36-19-00.1980N 087-55-00.1040W
36-19.003300N 087-55.001733W
36.3167217,-87.9166956
(estimated)
Elevation: 370 ft. / 113 m (estimated)
Variation: 00E (1985)
Time zone: UTC -5 (UTC -6 during Standard Time)
Zip code: 37175

Airport Operations

Airport use: Open to the public
Activation date: 10/1962
Control tower: no
ARTCC: MEMPHIS CENTER
FSS: JACKSON FLIGHT SERVICE STATION
NOTAMs facility: MKL (NOTAM-D service available)
Attendance: UNATNDD
Wind indicator: yes
Segmented circle: no

Airport Communications

CTAF: 122.9

Nearby radio navigation aids

VOR radial/distance  VOR name  Freq  Var
CKVr234/30.4CLARKSVILLE VOR/DME110.6001W

 
NDB name  Hdg/Dist  Freq  Var  ID
TRAINER081/24.541000ETIQ - .. --.-
DICKSON297/26.120301WDMZ -.. -- --..
HUNTINGDON065/30.021702WHZD .... --.. -..

Airport Services

Fuel available: 100LL
Parking: tiedowns
Airframe service: NONE
Powerplant service: NONE
Bottled oxygen: NONE
Bulk oxygen: NONE

Runway Information

Runway 8/26

Dimensions: 3000 x 75 ft. / 914 x 23 m
Surface: asphalt, in good condition
Weight bearing capacity: 
Single wheel: 11.0
Double wheel: 24.0
RUNWAY 8  RUNWAY 26
Traffic pattern: leftleft
Markings: basic, in fair conditionbasic, in fair condition
Runway end identifier lights: nono
Obstructions: 52 ft. trees, 1225 ft. from runway, 89 ft. left of centerline, 10:1 slope to clear
RY 08 TREES ALONG ROAD NEAR ROW OF HOUSES VIOLATE 7:1 TRANSITIONAL SFC.
94 ft. trees, 1157 ft. from runway, 188 ft. left of centerline, 11:1 slope to clear
RY 26 TREES ON SOUTH SIDE OF THLD VIOLATE 7:1 TRANSITIONAL SFC.

Airport Ownership and Management from official FAA records

Ownership: Publicly-owned
Owner: HOUSTON COUNTY
COUNTY COURTHOUSE
ERIN, TN 37061
Phone 931-289-3633
Manager: JAMES K. BRIDGES HOUSTON CNTY MAYOR
COUNTY COURTHOUSE, P.O. BOX 366
ERIN, TN 37061
Phone 931-289-3633

Airport Operational Statistics

Aircraft based on the field: 5
Single engine airplanes: 5
    
Aircraft operations: avg 40/week *
71% local general aviation
14% transient general aviation
14% military
* for 12-month period ending 31 May 2017

Additional Remarks

FOR CD CTC MEMPHIS ARTCC AT 901-368-8453.

Instrument Procedures

There are no published instrument procedures at M93.

Some nearby airports with instrument procedures:

0M5 - Humphreys County Airport (15 nm SE)
0M4 - Benton County Airport (21 nm SW)
KPHT - Henry County Airport (23 nm W)
KEOD - Sabre Army Airfield (Fort Campbell) (26 nm NE)
M02 - Dickson Municipal Airport (26 nm SE)
 
Loc | Ops | Rwys | IFR | FBO | Links
Com | Nav | Svcs | Stats | Notes
Area around M93 (Houston County Airport)
 
Road maps at: MapQuest Bing Google
 
Aerial photo
WARNING: Photo may not be current or correct
Aerial photo of M93 (Houston County Airport)
Photo by Eve Cascella
Photo taken 20-Oct-2008
from the east looking west

Do you have a better or more recent aerial photo of Houston County Airport that you would like to share? If so, please send us your photo.

 
Sectional chart

 
Airport distance calculator
Flying to Houston County Airport? Find the distance to fly.

From to M93

Sunrise and sunset
Times for 03-Jun-2020
 Local
(UTC-5)
 Zulu
(UTC)
Morning civil twilight05:0510:05
Sunrise05:3510:35
Sunset20:0401:04
Evening civil twilight20:3401:34

Current date and time
Zulu (UTC)  03-Jun-2020 08:57:26
Local (UTC-5)  03-Jun-2020 03:57:26
 
METAR
KPHT 
23nm W 
030835Z AUTO 23003KT 10SM FEW047 21/17 A3001 RMK A01
KEOD 
26nm NE 
030758Z AUTO 22004KT 10SM CLR 19/16 A3002 RMK AO2 SLP163 T01870164
KM02 
26nm SE 
030835Z AUTO 00000KT 10SM BKN050 20/20 A3003 RMK A01
KHOP 
29nm NE 
030756Z AUTO 20003KT 10SM CLR 20/16 A3001 RMK AO2 SLP159 T02020164 $
KHZD 
30nm SW 
030835Z AUTO 00000KT 10SM FEW048 FEW055 20/18 A3002 RMK A01
KCKV 
30nm NE 
030852Z AUTO 00000KT 10SM CLR 18/17 A3002 RMK AO2 SLP160 T01830167 55002
KCEY 
30nm NW 
030835Z AUTO 22004KT 10SM CLR 21/15 A3001 RMK AO1
KPVE 
42nm S 
030835Z AUTO 00000KT 10SM OVC049 19/18 A3002 RMK A01
KM25 
42nm NW 
030855Z AUTO 23003KT 10SM CLR 21/15 A3002 RMK AO2 PWINO
TAF
KHOP 
29nm NE 
030800Z 0308/0414 VRB06KT 9999 FEW120 QNH3000INS BECMG 0314/0315 25012G18KT 9999 FEW250 QNH2989INS BECMG 0320/0321 22006KT 9999 BKN035 QNH2987INS TEMPO 0321/0323 25010G15KT -TSRA BKN035CB TX29/0320Z TN18/0308Z
KCKV 
30nm NE 
030526Z 0306/0406 21005KT P6SM BKN250 FM040200 22005KT P6SM VCTS SCT050CB BKN100
NOTAMs
Click for the latest NOTAMs
NOTAMs are issued by the DoD/FAA and will open in a separate window not controlled by AirNav.

 

 
 

FBO, Fuel Providers, and Aircraft Ground Support

  
 Business Name 
 
 Contact 
 
 Services / Description 
 
Fuel Prices
 
Comments
  
McKinnon Airport 931-289-3633
[email]
Airport management, Aviation fuel, Hangar leasing / sales

More info about McKinnon Airport
100LL
SS $3.90 
 Updated 05-Jan-2020
 
   2 read write
SS=Self service
Update Fuel Prices
 

Would you like to see your business listed on this page?

 If your business provides an interesting product or service to pilots, flight crews, aircraft, or users of the Houston County Airport, you should consider listing it here.  To start the listing process, click on the button below
 
Add a business
 

Other Pages about Houston County Airport

Update a link
 
Copyright © AirNav, LLC. All rights reserved. Privacy Policy  Contact